Location: Gokavaram
(16.9752°N, 81.0696°E)
Time: 20:53:51
(UTC+00:00)

Meteor 2-3 Rocket - Pass Details

Date: 15 May 2026
Orbit: 846 x 879 km, 81.2° (Epoch: 8 June)

Event Time Altitude Azimuth Distance (km) Brightness Sun altitude
Rises 13:51:59 0° 9° (N) 3,422 7.1 -12.4°
Reaches altitude 10° 13:54:39 10° 19° (NNE) 2,490 6.2 -12.9°
Maximum altitude 13:59:40 33° 82° (E) 1,425 4.5 -14.0°
Enters shadow 14:02:39 20° 130° (SE) 1,882 4.9 -14.7°
